24 May 2015 Space
GT Aviation logo and link to the homepage
GT Aviation logo and link to the homepage Space
Space

GT Aviation UK - Airfield Weather Information

 

Weather information for EGHH


7 minutes ago, at 14:50 UTC, the wind was blowing at a speed of 5.7 meters per second (12.7 miles per hour) from West in EGHH. The temperature was 15 degrees Celsius (59 degrees Fahrenheit), and the pressure was 1,020 hPa (30.12 inHg). The relative humidity was 82.2%. There were a few clouds at a height of 457 meter (1500 feet) and broken clouds at a height of 640 meter (2100 feet). The visibility was >11.3 kilometers (>7 miles).

The METAR this information has been retrieved from is: EGHH 241450Z 26011KT 9999 FEW015 BKN021 15/12 Q1020

Search again?
Enter ICAO code: and show the report in
Don't know the ICAO code of the airport you want weather for?

To see a graphical view of the weather for EGHH, click here to visit SkyLinkWeather

 



GT Aviation UK
PO Box 15, WEYMOUTH DT4 8DS, UK
Email jane@gtaviation.co.uk Web www.gtaviation.co.uk

Use of this website constitutes acceptance of our User Agreement

TYNT INSIGHT technology is in use on this website to monitor text and pictures being copied from it. A record is kept only of the content copied.